Regional Weather Roundup
Issued by NWS

Home | Current Version | Previous Version | Graphics & Text | Print | Product List | Glossary On
Versions: 1 2 3 4 5 6 7 8 9 10 11 12 13 14 15 16 17 18 19 20 21 22 23 24 25 26 27 28 29 30 31 32 33 34 35 36 37 38 39 40 41 42 43 44 45 46 47 48 49 50
000
ASUS43 KFSD 291110
RWRSD

WEATHER ROUNDUP FOR SOUTH DAKOTA
NATIONAL WEATHER SERVICE SIOUX FALLS SD
600 AM CDT WED MAR 29 2017

NOTE: "FAIR" INDICATES FEW OR NO CLOUDS BELOW 12,000 FEET WITH NO
SIGNIFICANT WEATHER AND/OR OBSTRUCTIONS TO VISIBILITY.


SDZ001>005-009-010-012>017-291200-
NORTHWEST AND NORTH CENTRAL SOUTH DAKOTA

CITY           SKY/WX    TMP DP  RH WIND       PRES   REMARKS
BUFFALO          N/A     42  40  92 SW6       30.04R
FAITH            N/A     41  41 100 MISG      30.12R
MOBRIDGE       CLOUDY    44  39  82 CALM      30.11F
$$

SDZ012>016-024>037-041>051-057-063-072>074-291200-
SOUTHWEST AND SOUTH CENTRAL SOUTH DAKOTA

CITY           SKY/WX    TMP DP  RH WIND       PRES   REMARKS
RAPID CTY ARPT CLOUDY    39  38  96 CALM      30.11R
PIERRE         CLOUDY    42  40  92 N3        30.13R
CUSTER         CLOUDY    30  28  92 NW3       30.09R
ELLSWORTH AFB  CLOUDY    41  41 100 CALM      30.10
PHILIP         CLOUDY    42  42 100 CALM      30.14R
PINE RIDGE     CLOUDY    42  41  96 CALM      30.13R
SPEARFISH      FAIR      34  32  93 CALM      30.11R
WINNER         PTSUNNY   42  41  96 NW7       30.13S FOG
$$

SDZ004>011-016>023-039-040-291200-
NORTHEAST SOUTH DAKOTA

CITY           SKY/WX    TMP DP  RH WIND       PRES   REMARKS
ABERDEEN       CLOUDY    36  32  85 N6        30.15F
WATERTOWN      CLOUDY    37  34  89 N5        30.14F
BROOKINGS      CLOUDY    39  34  82 E3        30.13F
SISSETON         N/A     35  34  96 CALM      30.16S
$$

SDZ017-020-022-023-036>040-048>070-291200-
SOUTHEAST SOUTH DAKOTA

CITY           SKY/WX    TMP DP  RH WIND       PRES   REMARKS
SIOUX FALLS    CLOUDY    42  38  85 E5        30.13S
HURON          CLOUDY    41  38  89 CALM      30.13S
CHAMBERLAIN    CLOUDY    41  41  99 W3        30.14R
MITCHELL       CLOUDY    40  37  89 NE3       30.13S
YANKTON        CLOUDY    45  39  81 NE7       30.11R
$$

ABBREVIATIONS USED IN REMARKS
   TC - TEMPERATURE IN CELSIUS
  WCI - WIND CHILL INDEX
   HX - HEAT INDEX
  VSB - VISIBILITY





USA.gov is the U.S. government's official web portal to all federal, state and local government web resources and services.